[[{"header":{"parameterUnit":"m.s-1","parameterCategory":1,"la1":30.2991,"la2":30.254,"lo1":-89.0895,"lo2":-89.0444,"dy":0.0017,"dx":0.0017,"nx":28,"ny":28,"refTime":"2023-11-01T21:00:00:Z","depth":0,"parameterNumber":2,"parameterNumberName":"U-component_of_WINDS"},"data":[0,0,0,0,0,0,0,0,0,0,0,0,0,0,0,0,0,0,0,0,0,0,0,0,0,0,0,0,0,0,0,0,0,0,0,0,0,0,0,0,0,0,0,0,0,0,0,0,0,0,0,0,0,0,0,0,0,0,-2.3592,-2.3592,0,-2.3607,-2.3607,-2.3607,-2.3529,-2.3527,-2.3525,-2.3523,-2.3538,-2.354,-2.3542,0,0,0,0,0,0,0,0,0,0,0,0,0,-2.3496,-2.3498,-2.3592,-2.3592,-2.3592,-2.3607,-2.3607,-2.3607,-2.353,-2.3527,-2.3524,-2.3522,-2.3537,-2.354,-2.3543,0,0,0,0,0,0,0,0,0,0,0,0,0,-2.3527,-2.3499,-2.3592,-2.3555,-2.3552,-2.3607,-2.3607,-2.3607,-2.353,-2.3527,-2.3523,-2.352,-2.3536,-2.3539,-2.3543,-2.3633,0,0,-2.3554,-2.3556,0,0,0,0,0,0,0,0,-2.3525,-2.3531,-2.3561,-2.3558,-2.3555,-2.3563,-2.3578,-2.3616,-2.3531,-2.3539,-2.3522,-2.3519,-2.3549,-2.3551,-2.3561,-2.3634,-2.3635,-2.3555,-2.3557,-2.3559,-2.356,0,0,0,0,0,0,0,-2.3523,-2.353,-2.3598,-2.3561,-2.3557,-2.3538,-2.3539,-2.3585,-2.3562,-2.3538,-2.3532,-2.3535,-2.3546,-2.3558,-2.3561,-2.3635,-2.3555,-2.3558,-2.356,-2.3562,-2.3783,-2.3786,0,0,0,0,0,0,-2.3526,-2.3528,-2.3597,-2.3598,-2.3531,-2.3542,-2.3543,-2.3563,-2.3561,-2.3558,-2.3538,-2.3531,-2.3553,-2.3557,-2.3561,-2.3668,-2.3559,-2.3562,-2.3564,-2.3779,-2.3784,-2.3788,0,0,0,0,0,0,-2.3524,-2.3533,-2.3597,-2.3562,-2.3568,-2.3548,-2.3571,-2.3566,-2.3577,-2.3562,-2.3557,-2.3554,-2.3551,-2.3556,-2.3616,-2.3667,-2.3564,-2.3567,-2.3775,-2.3781,-2.3786,-2.3882,0,0,0,0,0,0,-2.3522,-2.3533,-2.3567,-2.3563,-2.3571,-2.3652,-2.3574,-2.3568,-2.3584,-2.3575,-2.3575,-2.3572,-2.3548,-2.3611,-2.362,-2.3671,-2.357,-2.3771,-2.3778,-2.3784,-2.3874,-2.389,-2.3903,0,0,0,0,0,-2.3519,-2.3593,-2.3569,-2.3578,-2.3613,-2.3655,-2.3659,-2.363,-2.3588,-2.3622,-2.3612,-2.3572,-2.366,-2.3618,-2.3627,-2.368,-2.3767,-2.3776,-2.3784,-2.3867,-2.3887,-2.3903,0,0,0,0,0,0,-2.3604,-2.3592,-2.3565,-2.3641,-2.365,-2.3642,-2.3684,-2.3652,-2.3672,-2.3664,-2.3627,-2.3627,-2.3694,-2.3692,-2.3646,-2.3767,-2.3706,-2.3717,-2.3767,-2.3785,-2.3799,-2.38,-2.3573,0,0,0,0,0,-2.3632,-2.3667,-2.3654,-2.3722,-2.3728,-2.3706,-2.3723,-2.37,-2.3707,-2.371,-2.3705,-2.3714,-2.3743,-2.3763,-2.3789,-2.3872,-2.3872,-2.3913,-2.3928,-2.394,-2.395,-2.3995,-2.4014,-2.3815,-2.3815,-2.3814,0,0,-2.3689,-2.3687,-2.3711,-2.3739,-2.3743,-2.3781,-2.3709,-2.3752,-2.3779,-2.3717,-2.3774,-2.377,-2.3777,-2.385,-2.3881,-2.385,-2.4005,-2.395,-2.396,-2.3964,-2.4005,-2.4024,-2.4041,-2.382,-2.3819,-2.3818,0,0,-2.3814,-2.3815,-2.3872,-2.3878,-2.3885,-2.3869,-2.3883,-2.388,-2.3875,-2.3932,-2.3886,-2.3917,-2.3969,-2.3976,-2.3987,-2.4113,-2.4078,-2.4122,-2.4201,-2.4245,-2.426,-2.4274,-2.4321,-2.4338,-2.4132,-2.4132,-2.4133,0,-2.3885,-2.394,-2.3906,-2.3952,-2.3966,-2.391,-2.3968,-2.3975,-2.399,-2.4001,-2.3966,-2.4029,-2.403,-2.4104,-2.4135,-2.4145,-2.416,-2.4124,-2.4261,-2.4274,-2.4287,-2.4331,-2.4349,-2.4138,-2.4137,-2.4137,-2.4136,0,-2.4027,-2.4066,-2.4111,-2.4128,-2.4146,-2.4198,-2.4173,-2.4195,-2.417,-2.4158,-2.4217,-2.4215,-2.4241,-2.4256,-2.4232,-2.4327,-2.4308,-2.4267,-2.4205,-2.4312,-2.4353,-2.437,-2.4146,-2.4144,-2.4142,-2.4141,0,0,-2.4208,-2.4205,-2.4223,-2.423,-2.4233,-2.4262,-2.4311,-2.4336,-2.4357,-2.4368,-2.441,-2.4454,-2.4416,-2.4428,-2.4404,-2.4443,-2.4545,-2.4397,-2.4397,-2.4427,-2.4652,-2.4684,-2.4705,-2.452,-2.4523,-2.4526,-2.4652,0,-2.4332,-2.4417,-2.4387,-2.4474,-2.451,-2.4457,-2.4499,-2.4506,-2.4496,-2.4525,-2.4513,-2.4546,-2.4493,-2.45,-2.4535,-2.4525,-2.459,-2.4515,-2.4559,-2.4561,-2.4562,-2.4726,-2.476,-2.488,-2.4668,-2.467,-2.4672,0,-2.4488,-2.4507,-2.4598,-2.4595,-2.4609,-2.4648,-2.4669,-2.4696,-2.4703,-2.4692,-2.4706,-2.4673,-2.4721,-2.4657,-2.4723,-2.4673,-2.4688,-2.4686,-2.469,-2.4695,-2.4625,-2.4738,-2.4917,-2.4936,-2.4697,-2.4695,-2.4693,0,-2.4615,-2.4662,-2.4722,-2.473,-2.4727,-2.4757,-2.4757,-2.4759,-2.4776,-2.4794,-2.4805,-2.4827,-2.4841,-2.4859,-2.4833,-2.4789,-2.4904,-2.4837,-2.4898,-2.4899,-2.4927,-2.4926,-2.5114,-2.4933,-2.4933,-2.4932,-2.4932,0,-2.4758,-2.4816,-2.4779,-2.4817,-2.488,-2.4845,-2.4908,-2.4902,-2.4905,-2.4941,-2.4894,-2.4929,-2.4891,-2.4922,-2.4902,-2.4961,-2.4966,-2.496,-2.4955,-2.4966,-2.4967,-2.4978,-2.497,-2.4937,-2.4936,-2.4935,-2.4934,0,-2.4911,-2.4888,-2.4951,-2.4944,-2.4943,-2.499,-2.4984,-2.5018,-2.5004,-2.5049,-2.5058,-2.5036,-2.507,-2.5045,-2.5078,-2.5064,-2.5143,-2.5124,-2.5141,-2.5137,-2.52,-2.5196,-2.5403,-2.543,-2.523,-2.5231,-2.5233,0,-2.5005,-2.5049,-2.5046,-2.5066,-2.507,-2.5103,-2.512,-2.5087,-2.5106,-2.5116,-2.515,-2.5179,-2.5202,-2.5258,-2.5245,-2.527,-2.5254,-2.5325,-2.5257,-2.5268,-2.5258,-2.5257,-2.5262,-2.5339,-2.5342,-2.5344,-2.5345,0,-2.5176,-2.5163,-2.5189,-2.5212,-2.5234,-2.525,-2.5263,-2.5282,-2.5248,-2.5272,-2.5306,-2.5324,-2.5357,-2.5388,-2.5408,-2.5408,-2.5372,-2.5366,-2.5382,-2.5395,-2.5405,-2.5403,-2.5181,-2.5362,-2.536,-2.5359,-2.5358,-2.5358,-2.5304,-2.5341,-2.5345,-2.5376,-2.5382,-2.5394,-2.5427,-2.5416,-2.5444,-2.547,-2.5447,-2.5489,-2.5493,-2.5517,-2.5521,-2.5553,-2.5524,-2.5546,-2.5552,-2.5559,-2.5569,-2.5397,-2.5556,-2.5555,-2.5555,-2.5554,-2.5554,0,-2.5475,-2.5474,-2.5503,-2.5523,-2.5547,-2.5509,-2.5521,-2.5544,-2.5581,-2.5588,-2.5611,-2.565,-2.568,-2.5668,-2.5694,-2.5722,-2.5706,-2.573,-2.5729,-2.573,-2.5592,-2.5577,-2.5743,-2.5743,-2.5743,-2.5743,-2.5742,-2.5742,-2.5567,-2.5627,-2.5614,-2.5677,-2.5675,-2.5716,-2.5726,-2.5737,-2.5743,-2.5789,-2.5813,-2.5805,-2.5805,-2.5831,-2.5856,-2.5852,-2.5864,-2.5895,-2.5886,-2.5758,-2.5739,-2.5722,-2.5708,-2.5898,-2.5898,-2.6021,-2.6022,-2.6023]},{"header":{"parameterUnit":"m.s-1","parameterCategory":1,"la1":30.2991,"la2":30.254,"lo1":-89.0895,"lo2":-89.0444,"dy":0.0017,"dx":0.0017,"nx":28,"ny":28,"refTime":"2023-11-01T21:00:00:Z","depth":0,"parameterNumber":3,"parameterNumberName":"V-component_of_WINDS"},"data":[0,0,0,0,0,0,0,0,0,0,0,0,0,0,0,0,0,0,0,0,0,0,0,0,0,0,0,0,0,0,0,0,0,0,0,0,0,0,0,0,0,0,0,0,0,0,0,0,0,0,0,0,0,0,0,0,0,0,-4.3152,-4.3153,0,-4.3223,-4.3224,-4.3224,-4.3177,-4.3175,-4.3173,-4.3171,-4.3239,-4.3242,-4.3246,0,0,0,0,0,0,0,0,0,0,0,0,0,-4.297,-4.2974,-4.3152,-4.3153,-4.3154,-4.3223,-4.3224,-4.3225,-4.3177,-4.3175,-4.3172,-4.317,-4.3237,-4.3242,-4.3246,0,0,0,0,0,0,0,0,0,0,0,0,0,-4.3046,-4.2975,-4.3152,-4.3138,-4.3138,-4.3223,-4.3224,-4.3225,-4.3178,-4.3175,-4.3171,-4.3168,-4.3236,-4.3241,-4.3247,-4.3347,0,0,-4.3264,-4.3267,0,0,0,0,0,0,0,0,-4.3042,-4.3053,-4.3139,-4.314,-4.3139,-4.3188,-4.3185,-4.3266,-4.3179,-4.3163,-4.3171,-4.3167,-4.3224,-4.323,-4.3251,-4.335,-4.3353,-4.3265,-4.3268,-4.3271,-4.3272,0,0,0,0,0,0,0,-4.3037,-4.3049,-4.318,-4.3141,-4.3141,-4.3127,-4.3135,-4.32,-4.321,-4.3164,-4.3161,-4.317,-4.3223,-4.3245,-4.3252,-4.3354,-4.3265,-4.327,-4.3273,-4.3276,-4.3539,-4.3543,0,0,0,0,0,0,-4.3033,-4.3045,-4.3177,-4.3182,-4.3082,-4.3133,-4.3141,-4.3175,-4.321,-4.3212,-4.3173,-4.3167,-4.3237,-4.3245,-4.3254,-4.3374,-4.3271,-4.3276,-4.3279,-4.3536,-4.354,-4.3544,0,0,0,0,0,0,-4.3029,-4.3045,-4.3175,-4.3113,-4.3128,-4.314,-4.3179,-4.3178,-4.3201,-4.3216,-4.3217,-4.3194,-4.3235,-4.3246,-4.3325,-4.3376,-4.3279,-4.3284,-4.3532,-4.3537,-4.3542,-4.3615,0,0,0,0,0,0,-4.3024,-4.3044,-4.3084,-4.3114,-4.3132,-4.3246,-4.3182,-4.3182,-4.3211,-4.3205,-4.3236,-4.3238,-4.3233,-4.3316,-4.333,-4.3382,-4.3288,-4.3527,-4.3534,-4.354,-4.3608,-4.3623,-4.3635,0,0,0,0,0,-4.3018,-4.31,-4.3086,-4.3102,-4.3181,-4.3249,-4.3259,-4.3253,-4.3216,-4.3255,-4.3264,-4.3237,-4.3368,-4.3325,-4.334,-4.3394,-4.3524,-4.3532,-4.354,-4.3603,-4.362,-4.3634,0,0,0,0,0,0,-4.3073,-4.3104,-4.3088,-4.3183,-4.3214,-4.3241,-4.329,-4.3271,-4.3312,-4.3304,-4.3293,-4.33,-4.3383,-4.3396,-4.3348,-4.3493,-4.344,-4.3451,-4.3482,-4.3499,-4.3512,-4.3507,-4.3293,0,0,0,0,0,-4.3097,-4.3151,-4.3174,-4.3255,-4.3271,-4.3278,-4.3307,-4.33,-4.3331,-4.3343,-4.3359,-4.3388,-4.3436,-4.3468,-4.3512,-4.3609,-4.3616,-4.3654,-4.3667,-4.3678,-4.3688,-4.3741,-4.3759,-4.357,-4.357,-4.357,0,0,-4.3146,-4.3169,-4.3203,-4.3267,-4.329,-4.3345,-4.3289,-4.3349,-4.339,-4.3351,-4.3428,-4.344,-4.3472,-4.3561,-4.3601,-4.3574,-4.3742,-4.3688,-4.3697,-4.3701,-4.3752,-4.3769,-4.3785,-4.3576,-4.3575,-4.3574,0,0,-4.3263,-4.3286,-4.3357,-4.3381,-4.3418,-4.3422,-4.3439,-4.3468,-4.3476,-4.3552,-4.3525,-4.3572,-4.3654,-4.3679,-4.3702,-4.3829,-4.3805,-4.3843,-4.3912,-4.3964,-4.3979,-4.3992,-4.4038,-4.4055,-4.3853,-4.3853,-4.3853,0,-4.3318,-4.3402,-4.3395,-4.3458,-4.3487,-4.3456,-4.3527,-4.3551,-4.3599,-4.3619,-4.3589,-4.3692,-4.3712,-4.3806,-4.3837,-4.3857,-4.3875,-4.384,-4.3977,-4.3991,-4.4003,-4.4047,-4.4064,-4.3858,-4.3857,-4.3857,-4.3856,0,-4.3469,-4.3527,-4.3579,-4.363,-4.3664,-4.373,-4.3732,-4.3767,-4.3757,-4.3764,-4.3842,-4.3864,-4.3913,-4.3934,-4.3924,-4.4028,-4.401,-4.3979,-4.3925,-4.4025,-4.4067,-4.4083,-4.3864,-4.3863,-4.3861,-4.386,0,0,-4.3623,-4.367,-4.3689,-4.3712,-4.375,-4.3794,-4.3858,-4.3908,-4.3939,-4.3973,-4.4027,-4.4097,-4.4069,-4.4095,-4.4087,-4.4132,-4.4233,-4.4096,-4.4096,-4.4122,-4.4349,-4.4374,-4.4394,-4.4217,-4.422,-4.4222,-4.4347,0,-4.3744,-4.386,-4.3856,-4.3963,-4.4017,-4.3988,-4.4044,-4.4073,-4.4081,-4.4126,-4.4133,-4.4184,-4.4142,-4.4158,-4.4202,-4.4212,-4.4279,-4.4202,-4.4267,-4.4269,-4.4262,-4.4415,-4.4441,-4.4558,-4.4363,-4.4366,-4.4368,0,-4.39,-4.3943,-4.4056,-4.4087,-4.4109,-4.416,-4.4206,-4.425,-4.4281,-4.4283,-4.4314,-4.4298,-4.4362,-4.4306,-4.4394,-4.4343,-4.4368,-4.4377,-4.4381,-4.4388,-4.4326,-4.4427,-4.4594,-4.4613,-4.4393,-4.4391,-4.4389,0,-4.4004,-4.4088,-4.4168,-4.4188,-4.4225,-4.4262,-4.4279,-4.4307,-4.4338,-4.4377,-4.4396,-4.4441,-4.4466,-4.4501,-4.4498,-4.4457,-4.4588,-4.4531,-4.4591,-4.4592,-4.4621,-4.462,-4.4797,-4.4635,-4.4635,-4.4635,-4.4634,0,-4.414,-4.4211,-4.4215,-4.4264,-4.4342,-4.4335,-4.4412,-4.4425,-4.4451,-4.45,-4.4477,-4.4524,-4.4516,-4.4562,-4.456,-4.4634,-4.4644,-4.4648,-4.4647,-4.4651,-4.4651,-4.4669,-4.4661,-4.4639,-4.4638,-4.4638,-4.4637,0,-4.427,-4.4275,-4.436,-4.4389,-4.4398,-4.4455,-4.4479,-4.4524,-4.453,-4.4593,-4.4608,-4.4616,-4.467,-4.4669,-4.473,-4.4728,-4.4819,-4.4807,-4.481,-4.4808,-4.4869,-4.4864,-4.5064,-4.5091,-4.4911,-4.4913,-4.4914,0,-4.4357,-4.4412,-4.4447,-4.448,-4.45,-4.4553,-4.4584,-4.4579,-4.4613,-4.4653,-4.4693,-4.4745,-4.4787,-4.4873,-4.4884,-4.493,-4.492,-4.4987,-4.4927,-4.493,-4.4923,-4.492,-4.4926,-4.4999,-4.5001,-4.5003,-4.5004,0,-4.4512,-4.4513,-4.456,-4.4609,-4.4648,-4.4686,-4.472,-4.4748,-4.4746,-4.4785,-4.4841,-4.4873,-4.4936,-4.4987,-4.5032,-4.5047,-4.5026,-4.5023,-4.504,-4.5046,-4.5046,-4.5048,-4.4844,-4.5019,-4.5017,-4.5016,-4.5016,-4.5015,-4.4625,-4.4672,-4.4705,-4.4759,-4.4785,-4.4818,-4.4863,-4.4875,-4.4922,-4.4974,-4.4967,-4.503,-4.5059,-4.5117,-4.5136,-4.5184,-4.516,-4.5184,-4.519,-4.5196,-4.5204,-4.5037,-4.5191,-4.5191,-4.519,-4.519,-4.519,0,-4.478,-4.48,-4.485,-4.49,-4.4943,-4.492,-4.4957,-4.4994,-4.5049,-4.5079,-4.5121,-4.5185,-4.5235,-4.525,-4.5298,-4.5333,-4.5324,-4.5346,-4.5344,-4.5348,-4.5222,-4.5203,-4.5352,-4.5352,-4.5352,-4.5352,-4.5352,-4.5352,-4.4866,-4.4946,-4.495,-4.5041,-4.506,-4.5123,-4.5146,-4.5176,-4.5201,-4.5274,-4.5316,-4.5326,-4.535,-4.5399,-4.5444,-4.5446,-4.5466,-4.5492,-4.5491,-4.5373,-4.5357,-4.5341,-4.5324,-4.5495,-4.5496,-4.5613,-4.5614,-4.5615]}]]